Weather History for Youngstown, OH

Change the Weather History Date:

Monday, December 9, 2013

  Actual Average Record
Temperature  
Mean Temperature 31 °F 32 °F  
Max Temperature 35 °F 38 °F 64 °F (1952)
Min Temperature 27 °F 26 °F -2 °F (1977)
Degree Days  
Heating Degree Days 34 33  
Month to date heating degree days 277 281  
Since 1 July heating degree days 1659 1610  
Cooling Degree Days 0 0  
Month to date cooling degree days 0 0  
Year to date cooling degree days 630 544  
Moisture  
Dew Point 26 °F    
Average Humidity 83    
Maximum Humidity 96    
Minimum Humidity 69    
Precipitation  
Precipitation 0.03 in 0.10 in 0.69 in (1953)
Month to date precipitation 0.50 0.91  
Year to date precipitation 36.11 36.83  
Snow  
Snow T in 0.40 in - ()
Month to date snowfall 3.3 3.8  
Since 1 July snowfall 17.4 8.2  
Snow Depth 1.00 in    
Sea Level Pressure  
Sea Level Pressure 30.02 in    
Wind  
Wind Speed 13 mph (SW)    
Max Wind Speed 24 mph    
Max Gust Speed 31 mph    
Visibility 7 miles    
Events Rain , Snow    
T = Trace of Precipitation, MM = Missing Value Source: NWS Daily Summary

Daily Weather History Graph

Daily Weather History Graph

Search for Another Location

Airport:

Trip Planner

Search our weather history database for the weather conditions in past years. The results will help you decide how hot, cold, wet, or windy it might be!

Date:

Astronomy

Dec. 09, 2013 Rise Set
Actual Time 7:36 AM EST 4:53 PM EST
Civil Twilight 7:05 AM EST 5:24 PM EST
Nautical Twilight 6:31 AM EST 5:59 PM EST
Astronomical Twilight 5:57 AM EST 6:32 PM EST
Moon 12:25 PM EST (12/9) No Moon Set
Length of Visible Light 10h 18m
Length of Day
9h 16m
Waxing Crescent, 51% of the Moon is Illuminated
Dec 9
Waxing Crescent
Dec 17
Full
Dec 25
Last Quarter
Jan 1
New
Jan 7
First Quarter

Hourly Weather History & Observations

Time (EST) Temp. Windchill Dew Point Humidity Pressure Visibility Wind Dir Wind Speed Gust Speed Precip Events Conditions
12:51 AM 28.0 °F 20.0 °F 26.1 °F 92% 30.04 in 4.0 mi SE 8.1 mph - 0.00 in Snow Light Freezing Drizzle
12:53 AM 28.4 °F 21.2 °F 26.6 °F 93% 29.99 in 1.5 mi SE 6.9 mph - 0.00 in Snow Light Freezing Drizzle
1:36 AM 28.4 °F 18.5 °F 26.6 °F 93% 29.95 in 1.5 mi SE 11.5 mph - 0.01 in Snow Light Freezing Drizzle
1:51 AM 30.0 °F 20.0 °F 28.0 °F 92% 29.98 in 1.5 mi SE 12.7 mph - 0.01 in Snow Light Freezing Drizzle
2:39 AM 30.2 °F 20.2 °F 28.4 °F 93% 29.93 in 1.5 mi SSE 12.7 mph 17.3 mph 0.00 in Rain Light Freezing Rain
2:51 AM 30.9 °F 22.8 °F 30.0 °F 96% 29.97 in 1.5 mi SE 9.2 mph - 0.00 in Rain Light Freezing Rain
3:43 AM 33.8 °F 25.3 °F 30.2 °F 87% 29.90 in 1.5 mi SSE 11.5 mph - 0.01 in Rain Light Rain
3:51 AM 33.1 °F 24.9 °F 32.0 °F 96% 29.94 in 1.5 mi South 10.4 mph - 0.01 in Rain Light Rain
4:51 AM 34.0 °F 26.6 °F 32.0 °F 92% 29.94 in 1.5 mi South 9.2 mph - 0.00 in Rain Light Rain
5:51 AM 35.1 °F 29.3 °F 33.1 °F 92% 29.94 in 1.5 mi SSW 6.9 mph - 0.01 in Rain Light Rain
6:51 AM 35.1 °F 27.4 °F 33.1 °F 92% 29.96 in 10.0 mi SW 10.4 mph - 0.00 in   Overcast
7:15 AM 35.6 °F 28.6 °F 33.8 °F 93% 29.92 in 10.0 mi SW 9.2 mph - N/A   Overcast
7:37 AM 35.6 °F 28.6 °F 33.8 °F 93% 29.93 in 10.0 mi SW 9.2 mph - N/A   Overcast
7:51 AM 35.1 °F 28.6 °F 33.1 °F 92% 29.97 in 10.0 mi SSW 8.1 mph - N/A   Overcast
8:51 AM 35.1 °F 25.9 °F 32.0 °F 89% 29.99 in 10.0 mi SW 13.8 mph 18.4 mph N/A   Overcast
9:51 AM 34.0 °F 25.0 °F 32.0 °F 92% 30.01 in 6.0 mi SW 12.7 mph - 0.00 in Rain Light Rain
10:51 AM 34.0 °F 24.2 °F 30.0 °F 85% 30.02 in 7.0 mi WSW 15.0 mph 24.2 mph 0.00 in Snow Light Snow
11:18 AM 33.8 °F 23.9 °F 28.4 °F 81% 29.99 in 9.0 mi WSW 15.0 mph 23.0 mph 0.00 in   Overcast
11:51 AM 34.0 °F 24.2 °F 28.0 °F 79% 30.03 in 10.0 mi WSW 15.0 mph - 0.00 in   Overcast
12:51 PM 32.0 °F 20.8 °F 25.0 °F 75% 30.04 in 10.0 mi WSW 17.3 mph 24.2 mph N/A   Overcast
1:51 PM 32.0 °F 22.5 °F 24.1 °F 73% 30.04 in 10.0 mi West 12.7 mph 20.7 mph N/A   Overcast
2:51 PM 32.0 °F 22.1 °F 24.1 °F 73% 30.04 in 10.0 mi SW 13.8 mph - N/A   Overcast
3:51 PM 30.9 °F 20.2 °F 23.0 °F 72% 30.06 in 10.0 mi WSW 15.0 mph 23.0 mph N/A   Overcast
4:51 PM 30.9 °F 20.2 °F 21.9 °F 69% 30.08 in 10.0 mi WSW 15.0 mph 21.9 mph N/A   Overcast
5:51 PM 30.0 °F 19.1 °F 21.0 °F 69% 30.11 in 10.0 mi WSW 15.0 mph 27.6 mph N/A   Overcast
6:51 PM 30.0 °F 18.7 °F 21.0 °F 69% 30.12 in 10.0 mi WSW 16.1 mph 20.7 mph N/A   Overcast
7:51 PM 28.9 °F 16.5 °F 19.9 °F 69% 30.13 in 10.0 mi WSW 18.4 mph 29.9 mph N/A   Overcast
8:51 PM 28.9 °F 17.7 °F 19.9 °F 69% 30.12 in 10.0 mi WSW 15.0 mph - N/A   Overcast
9:51 PM 28.0 °F 17.5 °F 21.0 °F 75% 30.12 in 10.0 mi West 12.7 mph - N/A   Overcast
10:27 PM 28.4 °F 19.7 °F 19.4 °F 69% 30.07 in 10.0 mi WSW 9.2 mph - N/A   Overcast
10:51 PM 27.0 °F 17.3 °F 19.9 °F 75% 30.10 in 10.0 mi WSW 10.4 mph - N/A   Overcast
11:33 PM 26.6 °F 15.2 °F 19.4 °F 74% 30.06 in 10.0 mi WSW 13.8 mph 21.9 mph N/A   Overcast
11:51 PM 27.0 °F 16.1 °F 18.0 °F 69% 30.10 in 10.0 mi WSW 12.7 mph - N/A   Overcast